Location: Rye
(30.7294°N, 96.4902°W)
Time: 18:14:26
(UTC+00:00)

Tiros 1 despin weight - Pass Details

Date: 10 December 2025
Orbit: 557 x 596 km, 48.2° (Epoch: 10 January)

Event Time Altitude Azimuth Distance (km) Brightness Sun altitude
Rises 00:34:44 0° 246° (WSW) 2,781 ? -14.7°
Reaches altitude 10° 00:37:06 10° 253° (WSW) 1,877 ? -15.2°
Maximum altitude 00:41:10 41° 324° (NW) 836 ? -16.1°
Enters shadow 00:43:40 20° 25° (NNE) 1,327 ? -16.6°
